Other Public Products
Issued by NWS Grand Forks, ND

Home | Current Version | Previous Version | Text Only | Print | Product List | Glossary Off
Versions: 1 2 3 4 5 6 7 8 9 10 11 12 13 14 15 16 17 18 19 20 21 22 23 24 25 26 27 28 29 30 31 32 33 34 35 36 37 38 39 40 41 42 43 44 45 46 47 48 49 50

000
FPUS83 KFGF 271931
OPUFGF
PRAIRIE TO PINES WEATHER ROUNDUP
NATIONAL WEATHER SERVICE EASTERN NORTH DAKOTA/GRAND FORKS ND
200 PM CDT FRI MAR 27 2015

 **SATELLITE DATA USED TO AUGMENT SKY COVER AT AUTOMATED STATIONS**
 *****  WEATHER ACROSS EASTERN NORTH DAKOTA  *****

CITY           SKY/WX    TMP DP  RH WIND       PRES   REMARKS
GRAND FORKS    CLOUDY    32  16  51 S9        30.12F WCI  24
GRAND FORKS AF MIX PCPN  32  19  59 S10       30.10F WCI  24
GRAND CITY NWS   N/A     32 N/A N/A SW6         N/A
BUXTON           N/A     34  13  40 S8          N/A
DEVILS LAKE    CLOUDY    28  25  86 S15       30.00S WCI  17
FARGO          CLOUDY    35   7  31 S14       30.13F
WAHPETON ARPT  CLOUDY    32   5  32 S9        30.14F WCI  24
$$

 *****  WEATHER ACROSS CENTRAL AND WESTERN NORTH DAKOTA  *****

CITY           SKY/WX    TMP DP  RH WIND       PRES   REMARKS
JAMESTOWN      LGT SNOW  27  24  89 S17       30.03F FOG     WCI  14
BISMARCK       CLOUDY    38  28  67 S10       29.96F
MINOT          PTSUNNY   43  33  68 S15       29.88F
MINOT AFB      CLOUDY    45  41  87 W9        29.87F
GARRISON         N/A     42  35  76 SW12      29.90F
WILLISTON      CLOUDY    58  36  43 N17       29.92S
DICKINSON      PTSUNNY   63  35  35 NW22G28   29.88S
HETTINGER      SUNNY     64  34  32 NW22G33   29.91F
$$

 *****  OTHER OBSERVATIONS NORTHEAST NORTH DAKOTA  *****

CITY           SKY/WX    TMP DP  RH WIND       PRES   REMARKS
WALHALLA         N/A     28  28 100 S13       30.07F FOG     WCI  18
LANGDON        NOT AVBL
CAVALIER       CLOUDY    28  27  93 S14       30.09F WCI  17
GRAFTON        NOT AVBL
CANDO          MIX PCPN  28  27  93 S15       30.00S WCI  17
FORT TOTTEN      N/A     28  25  87 S14       29.95S WCI  17
ROLLA          CLOUDY    27  27 100 S18       29.95S WCI  13
RUGBY            N/A     28  28 100 S12       29.95S WCI  18
 ***** THE ABOVE OBSERVATIONS ARE NON NWS ARE NOT QUALITY
        CONTROLLED AND MAY MIS-REPORT RAIN FOR SNOW...
$$

 *****  OTHER OBSERVATIONS SOUTHEAST NORTH DAKOTA *****

CITY           SKY/WX    TMP DP  RH WIND       PRES   REMARKS
COOPERSTOWN    NOT AVBL
VALLEY CITY    LGT SNOW  28  28 100 S14G20    30.06F WCI  17
OAKES          MIX PCPN  28  25  86 S14       30.08F WCI  17
GWINNER        MOCLDY    34  18  51 S12         N/A
BUFFALO        NOT AVBL
WYNDMERE         N/A     36   9  32 S9          N/A
 ***** THE ABOVE OBSERVATIONS ARE NON NWS ARE NOT QUALITY
       CONTROLLED AND MAY MIS-REPORT RAIN FOR SNOW...
$$

  *****  WEATHER ACROSS NORTHERN MINNESOTA  *****

CITY           SKY/WX    TMP DP  RH WIND       PRES   REMARKS
FLAG ISLAND    MOSUNNY   25  10  54 SE12      30.13F WCI  14
WARROAD        PTSUNNY   32  12  43 S7        30.14F
ROSEAU         PTSUNNY   30  10  43 SW6       30.14F WCI  24
HALLOCK        PTSUNNY   32  18  55 S10G16    30.11F WCI  24
THF RVR FALLS  CLOUDY    30  12  47 S13       30.13F WCI  20
HALSTAD          N/A     34   5  29 S10         N/A
FOSSTON        MOSUNNY   34   7  32 S10G20    30.13F
BAUDETTE       MOSUNNY   32   8  36 S7        30.13F
WASKISH        MOSUNNY   28  14  54 W8        30.14F WCI  20
CROOKSTON      CLOUDY    32   9  37 S12       30.14F WCI  23
$$
  *****  WEATHER ACROSS CENTRAL AND WEST MINNESOTA  *****

CITY           SKY/WX    TMP DP  RH WIND       PRES   REMARKS
BEMIDJI        MOSUNNY   32   3  29 SE6       30.12F
PARK RAPIDS    SUNNY     33   3  28 SE5       30.12F
WADENA         MOSUNNY   32   5  32 S6        30.13F
DETROIT LAKES  PTSUNNY   32   5  32 SW9       30.13F WCI  24
MOORHEAD       CLOUDY    36   0  21 S10       30.14F
FERGUS FALLS   CLOUDY    32   1  27 S12       30.17F WCI  23
ELBOW LAKE     FAIR      31   9  39 S9G17     30.15F WCI  23
MORRIS MN      CLOUDY    32  12  43 S8        30.15F WCI  25
STAPLES        SUNNY     34   1  25 S9        30.14F
WHEATON        CLOUDY    32  16  51 S8        30.17F WCI  25
$$
  *****  WEATHER ELSEWHERE ACROSS MINNESOTA  *****

CITY           SKY/WX    TMP DP  RH WIND       PRES   REMARKS
DULUTH         SUNNY     28   7  41 S8        30.16F WCI  20
INTRNTL FALLS  SUNNY     31   7  36 VRB6      30.15F
ELY            SUNNY     28  -8  20 CALM      30.14F
CLOQUET        SUNNY     30  -2  24 SE6       30.15F WCI  24
BRAINERD       SUNNY     31   0  26 S6        30.16F
HIBBING        SUNNY     31   0  26 VRB5      30.14F
ALEXANDRIA     PTSUNNY   30   6  36 SW9       30.16F WCI  22
SAINT CLOUD    SUNNY     31   1  28 S6        30.19F
MINNEAPOLIS    MOSUNNY   33   0  24 CALM      30.22F
$$

  *****  WEATHER ACROSS SOUTH DAKOTA  *****

CITY           SKY/WX    TMP DP  RH WIND       PRES   REMARKS
SIOUX FALLS    CLOUDY    34   9  35 S8        30.16F
BROOKINGS      NOT AVBL
WATERTOWN      CLOUDY    33  13  43 SW7       30.11F
HURON          LGT SNOW  31  24  75 S12       30.11F WCI  22
SISSETON         N/A     36  10  34 SW12      30.12F
ABERDEEN       LGT SNOW  31  24  75 S15       30.10F VSB 1   WCI  20
MITCHELL       CLOUDY    35  19  52 S12       30.14F
PIERRE         CLOUDY    41  32  70 S21       30.00F
MOBRIDGE       CLOUDY    39  30  70 S20       29.96F
RAPID CITY     MOSUNNY   69  38  32 NW28G37   29.95F
$$

  *****  SOME WEATHER IN NEARBY STATES *****

CITY           SKY/WX    TMP DP  RH WIND       PRES   REMARKS
GLASGOW MT     MOSUNNY   64  38  38 W9        29.94F
GREAT FALLS MT MOSUNNY   70  26  19 W22G30    30.01F
CHEYENNE WY    MOSUNNY   59  27  29 NW21G37   30.15F
SCOTTSBLUFF NE MOSUNNY   67  38  34 NW17G24   30.05F
OMAHA NE       CLOUDY    39  14  36 VRB3      30.22F
DES MOINES IA  PTSUNNY   40   9  28 E9        30.22F
DAVENPORT IA   SUNNY     35  10  35 MISG      30.20F
CHICAGO IL     PTSUNNY   30  11  45 NE9G18    30.16S WCI  22
EAU CLAIRE WI  SUNNY     31   4  31 E5        30.20F
LA CROSSE WI   SUNNY     33  11  39 W9        30.22F
$$

  *****  SOME NATIONAL WEATHER *****

CITY           SKY/WX    TMP DP  RH WIND       PRES   REMARKS
LA GUARDIA NY  CLOUDY    45  32  60 N9        29.72F
RALEIGH NC     DRIZZLE   45  41  87 NE10G18   29.76S
ATLANTA GA     MOSUNNY   56  33  42 NW22G32   29.85S
NEW ORLEANS LA MOSUNNY   65  35  33 NW17      30.05F
OKLAHOMA CITY  CLOUDY    54  36  50 N9        30.23F
ALBUQUERQUE NM SUNNY     67  21  17 W3        30.27F
SALT LAKE CITY SUNNY     62  29  28 CALM      30.28F
LOS ANGELES CA SUNNY     78  54  43 W8        30.08F
BOISE ID       SUNNY     66  45  46 S7        30.18F
SEATTLE WA     PTSUNNY   61  51  70 SW15G21   30.04F
$$

*** WEATHER ACROSS MANITOBA...SASKATCHEWAN AND ONTARIO ***
                ***ONTARIO***

CITY           SKY/WX    TMP DP  RH WIND       PRES   REMARKS
GERALDTON      SUNNY     21  -6  30 SW8       30.16F WCI  12
THUNDER BAY    SUNNY     25  -6  26 S5        30.23F WCI  19
SIOUX LOOKOUT  SUNNY     25   3  39 SW5       30.15F WCI  19
TORONTO        PTSUNNY   27  12  54 N21G28    29.91F WCI  13
BIG TROUT LK   SUNNY     27   0  31 W13G18    30.08F WCI  16
PICKLE LAKE    SUNNY     25  -2  30 W7        30.11F WCI  17
DRYDEN         SUNNY     25   3  39 S9        30.14F WCI  15
KENORA         MOSUNNY   25   3  39 SW13G18   30.13F WCI  13
$$
                *** MANITOBA***

CITY           SKY/WX    TMP DP  RH WIND       PRES   REMARKS
BRANDON        LGT SNOW  30  27  86 SE17G23   29.95F WCI  18
DAUPHIN        LGT SNOW  30  28  93 E8        29.97S WCI  23
ISLAND LAKE    SUNNY     27   9  46 CALM      30.09F
PILOT MOUND      N/A     27  25  93 S21G26      N/A  WCI  13
THE PAS        MOSUNNY   36  21  55 S13       30.01S
THOMPSON       MOSUNNY   36  14  41 SW5       30.02F
WINNIPEG       FLURRIES  30  21  69 S16       30.10F WCI  19
LYNN LAKE      SUNNY     37  21  52 SW8G17    29.95S
CHURCHILL      SUNNY     27  14  59 W13       29.88F WCI  16
GILLAM         SUNNY     32  14  47 W13       30.00F WCI  22
$$
                ***SASKATCHEWAN***

CITY           SKY/WX    TMP DP  RH WIND       PRES   REMARKS
ESTEVAN        CLOUDY    54  41  62 NW15G25   29.88
KINDERSLEY     MOSUNNY   54  41  62 NE5       29.90
LLOYDMINSTER   PTSUNNY   48  36  61 S6        29.89S
PRINCE ALBERT  CLOUDY    36  32  87 NE9       29.95R
REGINA         PTSUNNY   48  41  76 SW5       29.89S
YORKTON        CLOUDY    37  30  75 E6        29.90R


USA.gov is the U.S. government's official web portal to all federal, state and local government web resources and services.